Precipitable_Water
0.50 0.41 0.38 0.51 0.58 0.51 0.47 0.43 0.44 0.57 0.76 0.74 0.75 0.77 0.85 0.87 0.87 0.80 0.82 0.69 0.64 0.70 0.76 0.80 0.78 0.75 0.73 0.70 0.67 0.60 0.53 0.50 0.50 0.49 0.47 0.45 0.41 0.44 0.45 0.46 0.45 0.44 0.44 0.46
0.47 0.33 0.48 0.60 0.54 0.47 0.40 0.44 0.47 0.53 0.69 0.63 0.68 0.71 0.79 0.79 0.78 0.80 0.78 0.77 0.69 0.59 0.68 0.72 0.71 0.69 0.67 0.64 0.60 0.54 0.51 0.50 0.50 0.49 0.48 0.47 0.46 0.49 0.49 0.50 0.49 0.48 0.48 0.48
0.43 0.41 0.56 0.55 0.45 0.42 0.40 0.46 0.55 0.58 0.65 0.69 0.64 0.58 0.59 0.67 0.71 0.71 0.66 0.59 0.54 0.52 0.57 0.62 0.61 0.61 0.61 0.58 0.54 0.52 0.51 0.50 0.51 0.51 0.51 0.50 0.51 0.51 0.50 0.50 0.50 0.51 0.54 0.55
0.45 0.54 0.51 0.51 0.51 0.52 0.42 0.60 0.57 0.56 0.53 0.41 0.56 0.34 0.42 0.47 0.48 0.53 0.50 0.45 0.43 0.45 0.51 0.56 0.57 0.56 0.55 0.53 0.50 0.50 0.50 0.50 0.51 0.50 0.47 0.46 0.45 0.45 0.48 0.50 0.55 0.57 0.59 0.58
0.49 0.54 0.51 0.49 0.57 0.64 0.50 0.59 0.57 0.53 0.45 0.44 0.41 0.30 0.33 0.38 0.35 0.37 0.39 0.40 0.39 0.43 0.47 0.50 0.53 0.53 0.53 0.51 0.49 0.50 0.50 0.50 0.50 0.50 0.48 0.48 0.47 0.50 0.53 0.56 0.57 0.59 0.60 0.60
0.61 0.69 0.67 0.53 0.67 0.64 0.63 0.57 0.53 0.51 0.46 0.30 0.34 0.32 0.27 0.30 0.32 0.35 0.39 0.41 0.39 0.41 0.44 0.49 0.52 0.50 0.48 0.50 0.50 0.51 0.51 0.51 0.52 0.51 0.51 0.50 0.50 0.50 0.50 0.53 0.54 0.55 0.55 0.54
0.55 0.53 0.61 0.64 0.49 0.60 0.58 0.47 0.34 0.30 0.27 0.24 0.31 0.26 0.27 0.33 0.36 0.37 0.38 0.37 0.39 0.40 0.42 0.43 0.44 0.45 0.48 0.49 0.51 0.54 0.54 0.52 0.53 0.52 0.51 0.50 0.49 0.51 0.52 0.53 0.52 0.50 0.49 0.49
0.40 0.34 0.48 0.60 0.55 0.43 0.43 0.41 0.31 0.24 0.24 0.25 0.30 0.22 0.27 0.37 0.40 0.40 0.39 0.36 0.38 0.37 0.39 0.42 0.44 0.46 0.48 0.50 0.52 0.53 0.53 0.52 0.52 0.50 0.50 0.51 0.52 0.52 0.51 0.49 0.47 0.45 0.44 0.45
0.40 0.34 0.48 0.48 0.55 0.53 0.44 0.35 0.43 0.32 0.29 0.24 0.26 0.29 0.33 0.36 0.35 0.37 0.33 0.33 0.34 0.38 0.40 0.43 0.46 0.47 0.48 0.49 0.49 0.49 0.49 0.49 0.48 0.47 0.46 0.46 0.45 0.45 0.43 0.42 0.42 0.41 0.42 0.42
0.43 0.35 0.42 0.45 0.51 0.50 0.46 0.46 0.35 0.33 0.24 0.22 0.26 0.25 0.23 0.29 0.31 0.33 0.32 0.32 0.33 0.37 0.40 0.41 0.42 0.43 0.44 0.43 0.41 0.39 0.39 0.38 0.38 0.38 0.39 0.39 0.40 0.40 0.40 0.40 0.39 0.40 0.41 0.41
0.39 0.41 0.39 0.40 0.37 0.38 0.40 0.38 0.37 0.35 0.30 0.22 0.19 0.21 0.30 0.30 0.32 0.31 0.32 0.32 0.35 0.36 0.36 0.36 0.35 0.35 0.35 0.36 0.36 0.36 0.35 0.36 0.37 0.38 0.39 0.38 0.37 0.37 0.38 0.38 0.39 0.38 0.38 0.38
0.39 0.36 0.31 0.31 0.37 0.40 0.37 0.29 0.28 0.22 0.22 0.23 0.19 0.17 0.28 0.30 0.31 0.32 0.33 0.35 0.36 0.35 0.33 0.32 0.33 0.33 0.34 0.33 0.34 0.35 0.36 0.37 0.38 0.38 0.39 0.38 0.36 0.35 0.35 0.36 0.37 0.38 0.36 0.35
0.42 0.41 0.30 0.28 0.28 0.29 0.27 0.27 0.28 0.26 0.25 0.20 0.17 0.18 0.29 0.31 0.32 0.35 0.35 0.36 0.34 0.31 0.31 0.31 0.31 0.31 0.32 0.33 0.35 0.35 0.37 0.38 0.39 0.40 0.39 0.35 0.33 0.33 0.34 0.34 0.34 0.34 0.30 0.30
0.36 0.28 0.23 0.19 0.23 0.23 0.19 0.22 0.25 0.24 0.20 0.19 0.20 0.21 0.26 0.30 0.31 0.33 0.34 0.34 0.29 0.28 0.29 0.30 0.31 0.33 0.35 0.36 0.35 0.37 0.37 0.38 0.39 0.37 0.32 0.31 0.32 0.33 0.33 0.33 0.31 0.29 0.29 0.29
0.29 0.23 0.23 0.24 0.25 0.24 0.22 0.20 0.21 0.20 0.21 0.18 0.23 0.24 0.27 0.30 0.31 0.31 0.29 0.26 0.26 0.27 0.29 0.30 0.31 0.33 0.35 0.36 0.37 0.37 0.38 0.37 0.34 0.31 0.31 0.31 0.33 0.33 0.31 0.29 0.30 0.30 0.30 0.31
0.29 0.22 0.22 0.19 0.22 0.21 0.19 0.22 0.23 0.23 0.23 0.24 0.24 0.25 0.32 0.31 0.29 0.24 0.23 0.25 0.26 0.28 0.29 0.31 0.33 0.34 0.36 0.36 0.37 0.38 0.36 0.31 0.32 0.31 0.32 0.33 0.32 0.29 0.29 0.30 0.30 0.30 0.32 0.32
0.23 0.22 0.22 0.21 0.28 0.27 0.21 0.26 0.28 0.27 0.28 0.26 0.21 0.23 0.25 0.20 0.20 0.21 0.22 0.25 0.26 0.28 0.30 0.32 0.34 0.36 0.37 0.38 0.39 0.35 0.31 0.31 0.31 0.32 0.32 0.31 0.30 0.29 0.30 0.31 0.31 0.32 0.32 0.32
0.25 0.26 0.28 0.25 0.29 0.19 0.28 0.31 0.29 0.25 0.25 0.23 0.20 0.17 0.18 0.19 0.20 0.22 0.24 0.25 0.27 0.29 0.32 0.34 0.36 0.37 0.39 0.39 0.36 0.32 0.31 0.32 0.33 0.32 0.31 0.30 0.30 0.31 0.31 0.31 0.32 0.33 0.32 0.31
0.35 0.33 0.28 0.25 0.26 0.27 0.27 0.26 0.20 0.19 0.18 0.19 0.15 0.17 0.18 0.21 0.21 0.22 0.27 0.30 0.31 0.33 0.36 0.37 0.39 0.40 0.38 0.34 0.32 0.32 0.33 0.34 0.33 0.31 0.30 0.31 0.32 0.31 0.31 0.32 0.33 0.33 0.31 0.32
0.36 0.38 0.31 0.29 0.21 0.16 0.21 0.22 0.20 0.16 0.06 0.14 0.17 0.18 0.18 0.18 0.12 0.18 0.27 0.31 0.33 0.36 0.38 0.38 0.39 0.37 0.33 0.31 0.33 0.34 0.34 0.33 0.32 0.31 0.32 0.34 0.34 0.33 0.33 0.34 0.34 0.32 0.34 0.33
0.31 0.30 0.27 0.26 0.22 0.21 0.25 0.20 0.18 0.05 0.08 0.18 0.18 0.19 0.18 0.16 0.20 0.27 0.30 0.33 0.36 0.37 0.38 0.38 0.35 0.30 0.31 0.35 0.36 0.33 0.33 0.32 0.34 0.35 0.35 0.36 0.36 0.35 0.36 0.37 0.35 0.34 0.32 0.31
0.30 0.26 0.23 0.24 0.20 0.12 0.22 0.18 0.10 0.14 0.19 0.18 0.19 0.21 0.22 0.26 0.28 0.30 0.33 0.35 0.37 0.37 0.36 0.33 0.30 0.31 0.35 0.36 0.35 0.33 0.32 0.35 0.36 0.36 0.36 0.36 0.37 0.37 0.39 0.38 0.35 0.33 0.30 0.33
0.27 0.29 0.23 0.19 0.14 0.20 0.19 0.16 0.18 0.21 0.18 0.20 0.21 0.24 0.26 0.27 0.29 0.32 0.33 0.35 0.37 0.33 0.30 0.31 0.33 0.34 0.36 0.36 0.36 0.32 0.34 0.36 0.37 0.36 0.36 0.37 0.37 0.39 0.41 0.37 0.32 0.28 0.33 0.40
0.30 0.31 0.22 0.18 0.18 0.18 0.20 0.22 0.23 0.23 0.22 0.25 0.27 0.28 0.29 0.30 0.32 0.33 0.35 0.35 0.31 0.30 0.31 0.34 0.34 0.33 0.32 0.35 0.37 0.37 0.37 0.38 0.37 0.36 0.37 0.38 0.38 0.41 0.40 0.35 0.31 0.31 0.40 0.45
0.29 0.28 0.19 0.15 0.15 0.17 0.17 0.20 0.22 0.24 0.26 0.27 0.28 0.31 0.32 0.32 0.33 0.34 0.33 0.30 0.29 0.31 0.33 0.34 0.32 0.31 0.33 0.36 0.36 0.38 0.38 0.39 0.37 0.37 0.38 0.37 0.40 0.41 0.36 0.33 0.31 0.39 0.49 0.49
0.31 0.25 0.17 0.11 0.15 0.16 0.19 0.23 0.27 0.26 0.26 0.29 0.30 0.31 0.33 0.34 0.34 0.33 0.28 0.30 0.32 0.32 0.31 0.31 0.32 0.33 0.33 0.35 0.36 0.38 0.41 0.41 0.39 0.38 0.38 0.39 0.42 0.38 0.34 0.30 0.34 0.48 0.49 0.49
Wind_Speed
30 28 31 30 28 25 23 23 23 20 21 19 20 21 22 22 22 20 18 18 18 20 20 18 16 16 17 17 17 18 18 18 18 18 18 19 19 19 19 19 20 20 22 23
25 29 29 28 28 29 26 22 19 17 19 18 18 19 19 20 19 17 17 14 18 18 19 18 17 17 18 18 18 18 18 18 19 19 19 20 20 21 21 22 22 23 25 26
24 27 28 27 27 27 26 22 21 19 18 17 14 16 17 16 15 15 13 13 14 16 17 19 17 16 16 17 17 17 18 19 19 19 20 20 20 21 22 23 25 27 28 30
21 22 27 27 24 24 24 21 18 18 15 15 17 16 14 13 12 11 11 13 15 14 14 16 15 15 16 17 17 18 18 18 19 20 21 21 23 24 25 27 29 31 32 34
17 19 18 23 21 20 21 17 18 17 16 13 15 13 15 11 11 10 10 11 13 14 14 15 15 15 16 16 17 18 19 20 21 22 22 23 25 26 28 30 32 34 35 37
13 16 15 16 17 19 19 13 11 12 13 15 17 14 15 14 13 11 10 11 13 13 13 12 14 14 15 16 16 17 19 20 22 24 25 27 28 30 31 33 34 35 36 36
13 10 13 16 14 15 15 14 11 11 12 14 13 13 15 12 12 12 11 10 10 9 8 9 11 13 14 15 16 17 20 22 24 25 27 29 31 31 32 33 34 35 36 38
8 8 10 12 16 15 15 15 13 12 12 12 10 11 12 12 10 10 10 8 8 8 8 9 11 12 14 16 18 20 22 24 25 27 27 28 30 31 32 34 35 37 38 41
7 6 10 10 10 13 14 14 13 9 9 8 10 9 10 11 10 8 8 7 8 9 9 10 12 14 15 17 18 19 20 21 23 25 27 28 30 32 35 36 38 40 42 44
5 6 8 10 10 10 11 12 9 9 10 11 10 12 12 13 11 10 9 9 9 10 11 12 13 14 16 17 18 20 21 23 25 26 29 31 34 36 38 39 42 43 45 45
5 6 8 9 11 12 10 10 10 9 10 10 9 11 11 12 12 10 11 10 11 11 12 13 14 14 16 18 20 22 24 26 28 30 33 35 37 39 40 41 43 44 45 46
4 5 6 7 8 9 10 11 11 9 10 9 8 12 13 13 12 10 10 11 11 12 12 13 14 16 17 20 23 25 28 30 32 34 35 37 38 39 40 42 43 45 46 47
5 7 5 5 6 8 10 10 9 9 8 9 8 11 8 8 9 10 10 11 12 12 13 13 15 18 21 23 26 28 31 33 35 36 37 38 40 41 42 43 44 45 46 47
6 6 6 7 6 6 8 10 10 8 8 9 10 9 10 10 10 12 12 13 13 13 14 16 19 22 25 27 29 32 34 35 37 38 38 40 41 41 42 44 45 45 46 46
6 5 5 6 5 4 5 7 9 10 10 8 9 9 12 12 13 14 13 12 13 15 17 19 22 25 27 30 32 34 36 38 38 38 39 40 41 42 43 44 44 45 46 46
6 6 5 6 6 7 7 9 9 10 11 12 10 11 12 13 11 11 12 13 16 17 19 22 25 27 30 33 34 36 37 38 38 40 41 42 42 43 43 44 44 45 44 43
5 5 4 6 6 6 8 10 10 11 10 10 11 12 9 7 7 10 13 15 17 19 22 25 28 30 33 35 36 38 38 39 40 41 41 41 42 41 42 43 43 41 39 38
5 5 4 6 5 7 8 7 9 10 9 8 6 7 6 8 10 13 16 17 19 21 24 27 29 32 35 37 38 38 38 39 40 41 41 40 39 40 41 40 38 37 36 35
4 5 5 5 7 10 9 10 9 8 8 9 7 8 8 9 13 17 18 19 21 24 26 29 31 34 37 38 38 38 40 40 40 40 38 37 38 38 38 37 37 35 33 31
6 6 6 6 7 9 8 7 6 6 8 7 7 9 10 13 17 21 20 22 23 26 28 31 34 36 37 38 39 40 40 39 38 37 36 36 36 36 36 35 33 30 29 31
6 8 8 8 9 11 10 7 6 3 8 7 8 11 14 17 20 20 21 23 25 27 30 32 34 36 38 39 39 39 39 37 36 35 34 33 33 34 33 31 28 28 31 33
8 7 9 7 8 11 7 5 6 7 8 9 12 15 17 18 20 21 23 25 26 28 31 33 35 37 38 39 39 38 36 35 33 32 31 31 32 31 29 27 27 30 32 30
9 10 9 9 8 8 8 8 9 9 11 13 15 17 19 20 22 23 24 25 27 30 32 34 37 38 38 38 36 35 34 32 30 29 29 30 29 28 25 25 29 30 29 28
11 10 9 7 9 10 11 10 11 12 13 15 17 18 20 21 22 22 24 26 29 31 34 36 37 37 38 36 32 31 31 29 28 28 27 27 26 24 24 27 29 28 27 26
11 8 9 10 11 10 13 13 12 13 14 16 19 20 21 20 21 22 24 27 30 33 35 36 37 36 34 31 30 29 28 27 26 26 26 24 23 23 24 27 28 27 26 24
12 12 11 12 11 10 11 12 12 14 16 18 18 20 20 20 21 23 26 29 32 34 36 36 35 33 31 29 27 27 26 25 25 24 23 22 21 22 25 28 27 26 24 24
Wind_Direction
209 209 212 215 216 220 222 225 229 234 230 236 245 252 255 260 264 265 263 270 272 265 260 253 254 254 257 261 265 267 269 269 274 279 279 280 279 278 278 277 277 278 279 282
206 212 213 211 216 221 225 224 226 236 227 235 242 250 256 258 261 263 262 272 268 274 257 250 252 259 260 263 266 266 267 269 274 278 279 281 279 279 278 278 278 280 281 283
205 211 211 214 215 217 222 220 223 226 231 241 239 262 262 261 257 256 266 272 281 278 256 251 253 256 261 265 268 263 265 268 273 278 280 282 283 283 280 280 281 283 284 285
207 208 212 213 221 217 219 220 214 210 214 237 235 255 267 250 250 260 266 278 286 283 267 253 254 259 263 268 269 266 268 270 275 279 280 280 281 282 283 284 285 284 284 285
202 205 207 208 213 213 218 215 212 218 229 238 242 254 263 247 252 257 267 280 288 283 276 253 253 258 264 269 270 270 272 274 278 280 281 282 284 285 286 288 288 287 287 287
190 205 205 201 208 205 200 202 217 227 232 246 245 240 259 250 245 252 268 280 289 286 279 255 255 262 268 273 274 273 277 281 282 282 282 283 284 286 287 288 289 290 290 290
202 187 191 197 190 207 204 203 218 229 236 243 256 237 252 245 247 252 264 279 286 288 277 263 263 270 275 278 280 280 282 283 286 287 287 287 287 287 288 290 291 291 291 292
172 198 195 197 201 201 201 202 209 218 227 242 251 243 253 239 251 257 266 273 280 284 276 274 275 278 282 285 287 288 288 288 289 289 291 291 291 291 291 292 292 292 292 292
201 197 198 193 200 196 210 211 216 219 238 239 241 254 259 244 247 257 256 268 276 278 282 283 285 287 289 291 293 294 294 293 294 295 295 295 295 294 294 294 294 294 294 294
197 180 192 196 193 198 203 208 217 237 238 244 249 247 251 236 235 243 257 266 272 280 285 288 291 292 293 294 295 297 297 297 297 297 298 298 297 297 297 296 296 296 296 296
199 176 203 196 207 210 217 222 229 229 230 233 245 258 249 231 232 242 259 263 272 282 286 289 291 293 295 297 299 299 299 299 299 298 299 299 299 298 298 297 297 297 297 297
203 187 191 207 213 216 222 226 223 227 246 243 239 258 265 240 243 246 257 270 280 284 287 289 294 298 301 302 302 301 301 300 300 300 300 300 300 300 300 299 299 299 298 298
223 206 202 238 239 232 225 224 220 224 235 244 240 260 263 247 253 254 262 274 281 285 289 297 299 302 304 305 305 305 305 305 303 302 302 302 302 302 301 301 301 301 300 300
210 223 205 208 216 215 225 225 226 224 235 247 250 247 251 253 259 264 270 275 280 284 288 293 298 301 303 304 305 306 306 306 305 304 304 304 304 304 303 303 303 302 302 301
209 217 219 218 215 227 233 222 224 230 235 240 254 260 259 257 263 264 266 274 280 284 292 296 299 302 304 305 306 307 307 306 305 305 305 305 305 304 304 304 305 304 304 303
226 228 237 233 232 241 248 247 239 244 252 260 264 272 280 278 267 266 270 278 284 292 296 300 303 305 306 306 307 307 307 307 306 306 306 305 306 306 306 306 306 306 305 305
210 217 223 237 242 256 265 249 250 253 258 256 264 265 264 277 280 279 282 286 291 294 298 302 304 306 307 308 308 308 307 307 307 307 307 306 306 307 308 308 308 308 308 308
220 220 225 236 268 257 260 265 263 257 255 257 258 248 258 272 289 299 296 294 297 299 302 304 306 308 308 308 308 308 308 308 308 308 307 307 308 309 310 310 310 310 309 310
230 232 247 248 256 276 270 268 267 260 261 252 240 255 272 286 298 306 303 300 300 303 304 306 308 309 309 310 309 309 309 309 309 308 308 309 310 311 312 312 312 311 311 312
248 249 249 261 262 259 269 264 264 266 268 258 255 266 281 295 300 300 300 303 305 307 308 309 310 310 311 311 311 310 309 308 309 309 309 310 311 312 313 313 313 313 314 314
258 266 250 260 266 278 267 253 257 245 258 267 280 282 288 297 301 301 303 307 308 309 310 311 312 313 313 313 313 311 311 310 310 310 311 312 313 314 315 315 316 316 317 317
249 250 256 259 267 277 237 234 233 256 278 284 296 298 302 304 305 306 307 308 309 311 312 314 314 314 315 315 315 314 313 312 311 312 313 314 315 316 317 317 318 319 319 319
263 249 258 244 252 253 237 255 262 273 285 292 298 302 303 304 306 306 307 310 312 312 314 315 315 315 315 315 315 315 316 315 314 314 315 316 317 318 319 320 321 322 322 321
262 254 251 259 257 250 249 265 270 281 289 296 301 301 304 306 307 309 310 312 314 315 316 317 317 317 316 317 317 317 318 318 317 317 318 318 319 320 322 323 325 324 323 323
250 243 243 258 264 267 268 266 272 282 293 301 304 306 306 308 309 310 313 315 316 317 319 319 319 319 319 319 319 320 320 320 320 320 320 321 321 323 324 326 327 326 327 326
243 242 241 253 261 262 276 273 273 286 295 299 304 308 309 310 310 313 315 316 318 319 320 321 321 321 320 320 320 321 322 323 323 322 323 323 324 327 328 329 330 330 330 331